EW6640 Weather Reports


time (UTC)temp
F
wind
direction
speed
knots
gust
knots
rain 1hr
in
rain 24hr
in
rain mn
in
humidity
%
barometer
mb
20260507000048 54 342 0.9 4.3 0.00 1.25 0.37 60 1014.8
20260506234547 54 330 1.7 4.3 0.00 1.25 0.37 61 1014.6
20260506233048 54 343 0.0 2.6 0.00 1.25 0.37 60 1014.8
20260506231549 55 327 0.9 3.5 0.00 1.25 0.37 59 1014.7
20260506230045 55 349 0.9 3.5 0.00 1.28 0.37 56 1014.8
20260506224545 55 325 0.0 3.5 0.00 1.28 0.37 59 1015.0
20260506223101 55 346 0.9 4.3 0.00 1.28 0.37 60 1015.0
20260506221543 55 280 0.0 5.2 0.00 1.28 0.37 58 1015.1
20260506220042 55 342 0.0 5.2 0.00 1.28 0.37 60 1014.9
20260506214542 55 342 0.9 4.3 0.00 1.28 0.37 60 1014.8
20260506213040 55 317 1.7 4.3 0.00 1.28 0.37 60 1014.8
20260506211540 55 338 0.9 2.6 0.00 1.28 0.37 60 1014.6
20260506210041 55 325 0.9 3.5 0.00 1.33 0.37 61 1014.5
20260506204537 55 317 0.9 4.3 0.00 1.33 0.37 61 1014.4
20260506203130 55 355 0.9 3.5 0.00 1.33 0.37 60 1014.4
20260506201548 55 323 0.0 4.3 0.00 1.33 0.37 59 1014.4
20260506200002 55 319 1.7 3.5 0.00 1.47 0.37 58 1014.4
20260506194519 55 267 0.9 3.5 0.00 1.47 0.37 60 1014.1
20260506193115 55 308 0.0 4.3 0.00 1.47 0.37 63 1014.1
20260506191651 55 310 0.9 4.3 0.00 1.47 0.37 60 1014.5
20260506190028 55 351 2.6 7.0 0.00 1.47 0.37 62 1014.5
20260506184528 55 351 0.9 3.5 0.00 1.47 0.37 63 1014.4
20260506183029 55 326 1.7 5.2 0.00 1.47 0.37 62 1014.0
20260506181531 55 293 1.7 6.1 0.00 1.47 0.37 64 1014.0
20260506180051 55 313 2.6 7.0 0.00 1.47 0.37 63 1014.3
20260506174513 55 279 0.9 4.3 0.00 1.47 0.37 63 1014.6
20260506173125 55 295 0.0 5.2 0.00 1.47 0.37 64 1014.5
20260506171542 56 271 0.0 2.6 0.00 1.47 0.37 67 1014.3
20260506170051 55 309 0.9 4.3 0.00 1.47 0.37 65 1014.2
20260506164548 55 355 0.9 7.8 0.00 1.47 0.37 68 1014.2
20260506163050 55 323 0.0 4.3 0.00 1.47 0.37 67 1014.2
20260506161552 54 316 1.7 7.8 0.00 1.47 0.37 68 1014.4
20260506160037 53 342 1.7 4.3 0.00 1.47 0.37 73 1013.9
20260506154534 53 313 0.9 4.3 0.00 1.47 0.37 72 1013.8
20260506153031 52 324 1.7 4.3 0.00 1.47 0.37 74 1014.1
20260506151528 51 360 0.0 3.5 0.00 1.47 0.37 79 1013.7
20260506150026 50 5 0.9 7.0 0.00 1.47 0.37 80 1013.4
20260506144525 49 321 0.9 3.5 0.00 1.47 0.37 81 1013.2
20260506143009 49 331 2.6 5.2 0.00 1.47 0.37 82 1013.4
20260506141554 48 325 0.0 5.2 0.00 1.47 0.37 86 1013.5
20260506140051 47 334 0.9 3.5 0.00 1.47 0.37 86 1013.5
20260506134527 46 344 0.0 4.3 0.00 1.47 0.37 87 1013.3
20260506133102 46 336 0.0 3.5 0.00 1.47 0.37 91 1013.0
20260506131528 45 333 0.9 4.3 0.00 1.47 0.37 93 1012.9
20260506130058 45 341 0.9 3.5 0.00 1.47 0.37 94 1013.0
20260506124556 44 323 0.0 2.6 0.00 1.47 0.37 96 1012.7
20260506123056 44 334 0.0 0.0 0.00 1.47 0.37 97 1012.7
20260506121604 44 335 0.0 1.7 0.00 1.47 0.37 97 1012.6
20260506120052 44 317 0.0 2.6 0.00 1.47 0.37 98 1012.0
20260506114553 43 330 0.0 0.0 0.00 1.47 0.37 98 1011.6
20260506113049 43 330 0.0 0.0 0.00 1.47 0.37 98 1011.5
20260506111604 43 330 0.0 0.0 0.00 1.47 0.37 98 1011.4
20260506110048 43 333 0.0 2.6 0.00 1.48 0.37 98 1011.1
20260506104545 43 316 0.0 2.6 0.00 1.48 0.37 98 1010.7
20260506103044 43 253 0.0 0.9 0.00 1.48 0.37 98 1010.4
20260506101544 43 320 0.0 2.6 0.00 1.48 0.37 98 1010.5
20260506100042 42 319 0.0 2.6 0.00 1.70 0.37 98 1010.3
20260506094542 42 328 0.9 4.3 0.00 1.70 0.37 98 1010.5
20260506093038 42 325 0.0 1.7 0.00 1.70 0.37 99 1010.1
20260506091534 42 327 0.0 2.6 0.00 1.70 0.37 99 1009.5
20260506090032 42 327 0.0 2.6 0.01 1.80 0.37 99 1009.9
20260506084531 42 330 0.0 1.7 0.02 1.80 0.37 99 1009.6
20260506083029 43 330 0.0 1.7 0.04 1.80 0.37 99 1009.0
20260506081532 43 331 0.0 3.5 0.03 1.79 0.36 99 1009.7
20260506073026 43 324 0.0 2.6 0.01 1.76 0.33 100 1009.5
20260506071526 43 325 0.0 2.6 0.02 1.76 0.33 100 1009.3
20260506061531 44 346 0.0 4.3 0.10 1.73 0.30 99 1009.5
20260506044507 46 336 0.0 0.9 0.17 1.50 0.07 100 1009.5
20260506043008 46 5 0.0 2.6 0.19 1.49 0.06 99 1008.6
20260506041504 46 355 0.0 3.5 0.17 1.47 0.04 99 1009.0
20260506040101 46 347 0.0 2.6 0.13 1.42 1.42 99 1009.3
20260506034601 47 340 0.0 1.7 0.04 1.33 1.33 99 1009.2
20260506033055 47 355 0.0 3.5 0.03 1.30 1.30 99 1008.7
20260506031553 47 53 0.0 1.7 0.05 1.30 1.30 99 1008.7
20260506030053 48 342 0.0 0.9 0.06 1.29 1.29 99 1008.5
20260506024600 48 342 0.0 1.7 0.07 1.29 1.29 99 1008.7
20260506023052 48 328 0.0 0.0 0.06 1.27 1.27 99 1009.0
20260506021550 48 336 0.0 3.5 0.06 1.25 1.25 99 1009.2
20260506020148 48 329 0.0 2.6 0.06 1.23 1.23 99 1009.2
20260506014557 49 355 0.0 1.7 0.09 1.22 1.22 99 1008.9
20260506013046 49 344 0.0 2.6 0.11 1.21 1.21 99 1008.7
20260506011559 49 302 0.0 2.6 0.13 1.19 1.19 99 1008.8
20260506010032 49 302 0.9 4.3 0.15 1.15 1.15 99 1009.2
20260506004533 49 332 1.7 7.0 0.26 1.12 1.12 98 1008.8
20260506003028 50 334 0.9 4.3 0.41 1.10 1.10 98 1008.5